Location: Central Coast
(33.3208°S, 151.2336°E)
Time: 10:55:52
(UTC+10:00)

Envisat - Visible Passes

Search period start: 18 August 2018 00:00
Search period end: 28 August 2018 00:00
Orbit: 764 x 766 km, 98.2° (Epoch: 17 August)

Date Brightness Start Highest point End Pass type
(mag) Time Alt. Az. Time Alt. Az. Time Alt. Az.
19 Aug 6.0 05:44:37 10° E 05:46:34 12° ESE 05:48:30 10° SE visible
24 Aug 5.7 05:57:29 10° ENE 06:00:45 17° ESE 06:04:02 10° SSE visible
27 Aug 5.9 05:47:18 10° E 05:49:43 13° ESE 05:52:09 10° SE visible
